Вернуться в каталог

CZ-6A DEB

АктивенPO
NORAD 61417·DEBRIS·🇨🇳 China

Запущен Aug 6, 2024 с Taiyuan Satellite Launch Center

Loading…

Ближайшие Пролёты (ближайшие 24 часа)

TLE

СвежийSource: Space-Track

Эпоха: Sep 14, 2026, 10:24 UTC

1 61417U 24140YJ  26257.43349385  .00008002  00000-0  59492-3 0  9993
2 61417  88.9683 252.0589 0091507 145.9769 214.7381 14.99509874109065

Отслеживайте CZ-6A DEB в реальном времени с AllMySat

Download on the App Store